| time (UTC) | temp C | wind direction | speed KPH | gust KPH | rain 1hr cm | rain 24hr cm | rain mn cm | humidity % | barometer mb |
| 20260507023327 | 10 | 354 | 1.6 | 6.4 | 0.00 | 1.19 | 1.12 | 71 | 1010.8 |
| 20260507022827 | 11 | 354 | 3.2 | 6.4 | 0.00 | 1.19 | 1.12 | 71 | 1010.7 |
| 20260507022327 | 11 | 354 | 1.6 | 4.8 | 0.00 | 1.19 | 1.12 | 71 | 1010.7 |
| 20260507022047 | 11 | 354 | 1.6 | 4.8 | 0.00 | 1.19 | 1.12 | 71 | 1010.8 |
| 20260507021327 | 11 | 354 | 3.2 | 4.8 | 0.00 | 1.19 | 1.12 | 71 | 1010.6 |
| 20260507020826 | 11 | 354 | 3.2 | 4.8 | 0.00 | 1.19 | 1.12 | 71 | 1010.8 |
| 20260507020326 | 11 | 354 | 3.2 | 4.8 | 0.00 | 1.19 | 1.12 | 71 | 1010.7 |
| 20260507015827 | 11 | 354 | 3.2 | 4.8 | 0.00 | 1.19 | 1.12 | 72 | 1010.7 |
| 20260507015326 | 11 | 354 | 1.6 | 3.2 | 0.00 | 1.19 | 1.12 | 72 | 1010.8 |
| 20260507014826 | 11 | 354 | 1.6 | 4.8 | 0.00 | 1.19 | 1.12 | 71 | 1010.7 |
| 20260507014545 | 11 | 354 | 1.6 | 4.8 | 0.00 | 1.19 | 1.12 | 70 | 1010.7 |
| 20260507013826 | 11 | 354 | 1.6 | 4.8 | 0.00 | 1.19 | 1.12 | 70 | 1010.5 |
| 20260507013327 | 11 | 354 | 1.6 | 4.8 | 0.00 | 1.19 | 1.12 | 70 | 1010.7 |
| 20260507012825 | 11 | 354 | 1.6 | 4.8 | 0.00 | 1.19 | 1.12 | 70 | 1010.4 |
| 20260507012326 | 11 | 354 | 1.6 | 8.0 | 0.00 | 1.19 | 1.12 | 69 | 1010.3 |
| 20260507011826 | 11 | 354 | 4.8 | 8.0 | 0.00 | 1.19 | 1.12 | 69 | 1010.2 |
| 20260507011325 | 11 | 354 | 3.2 | 6.4 | 0.00 | 1.19 | 1.12 | 69 | 1010.1 |
| 20260507010825 | 11 | 351 | 3.2 | 6.4 | 0.00 | 1.19 | 1.12 | 69 | 1010.2 |
| 20260507010326 | 11 | 350 | 3.2 | 6.4 | 0.00 | 1.19 | 1.12 | 70 | 1010.1 |
| 20260507005826 | 11 | 0 | 3.2 | 6.4 | 0.00 | 1.19 | 1.12 | 70 | 1010.1 |
| 20260507005549 | 11 | 0 | 3.2 | 9.7 | 0.00 | 1.19 | 1.12 | 70 | 1010.0 |
| 20260507004822 | 11 | 0 | 3.2 | 9.7 | 0.00 | 1.19 | 1.12 | 70 | 1009.7 |
| 20260507004323 | 11 | 0 | 3.2 | 9.7 | 0.00 | 1.19 | 1.12 | 70 | 1009.6 |
| 20260507003824 | 11 | 0 | 4.8 | 11.3 | 0.00 | 1.19 | 1.12 | 69 | 1009.7 |
| 20260507003324 | 11 | 350 | 4.8 | 11.3 | 0.00 | 1.19 | 1.12 | 71 | 1009.5 |
| 20260507002825 | 12 | 345 | 1.6 | 4.8 | 0.00 | 1.19 | 1.12 | 73 | 1009.6 |
| 20260507002325 | 12 | 345 | 0.0 | 0.0 | 0.00 | 1.19 | 1.12 | 74 | 1009.5 |
| 20260507001825 | 12 | 345 | 0.0 | 0.0 | 0.00 | 1.19 | 1.12 | 73 | 1009.5 |
| 20260507001325 | 12 | 345 | 0.0 | 0.0 | 0.00 | 1.19 | 1.12 | 72 | 1009.4 |
| 20260507000824 | 12 | 345 | 0.0 | 0.0 | 0.00 | 1.19 | 1.12 | 71 | 1009.4 |
| 20260507000324 | 12 | 345 | 0.0 | 0.0 | 0.00 | 1.19 | 1.12 | 71 | 1009.5 |
| 20260507000047 | 12 | 345 | 0.0 | 0.0 | 0.00 | 1.19 | 1.12 | 72 | 1009.4 |
| 20260506235322 | 12 | 345 | 0.0 | 0.0 | 0.00 | 1.19 | 1.12 | 69 | 1009.5 |
| 20260506234822 | 12 | 345 | 0.0 | 0.0 | 0.00 | 1.19 | 1.12 | 68 | 1009.5 |
| 20260506234544 | 12 | 345 | 0.0 | 0.0 | 0.00 | 1.19 | 1.12 | 68 | 1009.8 |
| 20260506233823 | 12 | 345 | 0.0 | 0.0 | 0.00 | 1.19 | 1.12 | 67 | 1010.0 |
| 20260506233553 | 12 | 345 | 0.0 | 0.0 | 0.00 | 1.19 | 1.12 | 67 | 1009.8 |
| 20260506232824 | 12 | 345 | 0.0 | 0.0 | 0.00 | 1.19 | 1.12 | 68 | 1009.9 |
| 20260506232323 | 12 | 345 | 0.0 | 0.0 | 0.00 | 1.19 | 1.12 | 68 | 1010.0 |
| 20260506231823 | 12 | 345 | 0.0 | 1.6 | 0.00 | 1.19 | 1.12 | 67 | 1009.9 |
| 20260506231324 | 12 | 345 | 0.0 | 3.2 | 0.00 | 1.19 | 1.12 | 66 | 1009.5 |
| 20260506230823 | 12 | 345 | 0.0 | 4.8 | 0.00 | 1.19 | 1.12 | 66 | 1009.6 |
| 20260506230542 | 12 | 345 | 3.2 | 4.8 | 0.00 | 1.19 | 1.12 | 64 | 1009.9 |
| 20260506225823 | 13 | 345 | 1.6 | 4.8 | 0.00 | 1.19 | 1.12 | 65 | 1009.7 |
| 20260506225550 | 13 | 345 | 0.0 | 1.6 | 0.00 | 1.19 | 1.12 | 65 | 1009.7 |
| 20260506224823 | 13 | 345 | 0.0 | 4.8 | 0.00 | 1.19 | 1.12 | 67 | 1009.7 |
| 20260506224323 | 13 | 345 | 1.6 | 4.8 | 0.00 | 1.19 | 1.12 | 65 | 1009.6 |
| 20260506223823 | 13 | 345 | 1.6 | 4.8 | 0.00 | 1.19 | 1.12 | 64 | 1009.6 |
| 20260506223552 | 13 | 345 | 0.0 | 4.8 | 0.00 | 1.19 | 1.12 | 65 | 1009.5 |
| 20260506222823 | 13 | 345 | 0.0 | 4.8 | 0.00 | 1.19 | 1.12 | 63 | 1009.5 |
| 20260506222322 | 13 | 345 | 1.6 | 3.2 | 0.00 | 1.19 | 1.12 | 62 | 1009.4 |
| 20260506221823 | 13 | 345 | 0.0 | 3.2 | 0.00 | 1.19 | 1.12 | 65 | 1009.5 |
| 20260506221546 | 13 | 345 | 1.6 | 3.2 | 0.00 | 1.19 | 1.12 | 65 | 1009.4 |
| 20260506221046 | 13 | 345 | 1.6 | 6.4 | 0.00 | 1.19 | 1.12 | 61 | 1009.2 |
| 20260506220322 | 13 | 345 | 3.2 | 6.4 | 0.00 | 1.19 | 1.12 | 63 | 1009.3 |
| 20260506220042 | 13 | 350 | 3.2 | 6.4 | 0.00 | 1.19 | 1.12 | 63 | 1009.2 |
| 20260506215322 | 13 | 344 | 3.2 | 8.0 | 0.00 | 1.19 | 1.12 | 63 | 1009.1 |
| 20260506214821 | 13 | 338 | 4.8 | 11.3 | 0.00 | 1.19 | 1.12 | 64 | 1009.1 |
| 20260506214322 | 13 | 0 | 4.8 | 11.3 | 0.00 | 1.19 | 1.12 | 62 | 1009.3 |
| 20260506213821 | 13 | 0 | 3.2 | 8.0 | 0.00 | 1.19 | 1.12 | 64 | 1009.1 |
| 20260506213544 | 13 | 281 | 3.2 | 8.0 | 0.00 | 1.19 | 1.12 | 65 | 1009.2 |
| 20260506212821 | 13 | 341 | 3.2 | 8.0 | 0.00 | 1.19 | 1.12 | 65 | 1009.1 |
| 20260506212321 | 13 | 343 | 1.6 | 8.0 | 0.00 | 1.19 | 1.12 | 64 | 1009.0 |
| 20260506211822 | 13 | 340 | 3.2 | 8.0 | 0.00 | 1.19 | 1.12 | 66 | 1008.9 |
| 20260506211321 | 13 | 0 | 3.2 | 11.3 | 0.00 | 1.19 | 1.12 | 66 | 1009.0 |
| 20260506210321 | 13 | 338 | 4.8 | 14.5 | 0.00 | 1.19 | 1.12 | 67 | 1008.9 |
| 20260506205823 | 13 | 344 | 6.4 | 14.5 | 0.00 | 1.19 | 1.12 | 64 | 1008.7 |
| 20260506205318 | 14 | 314 | 3.2 | 6.4 | 0.00 | 1.19 | 1.12 | 69 | 1008.7 |
| 20260506204819 | 13 | 340 | 3.2 | 8.0 | 0.00 | 1.19 | 1.12 | 68 | 1008.4 |
| 20260506204320 | 13 | 285 | 3.2 | 14.5 | 0.00 | 1.19 | 1.12 | 71 | 1008.4 |
| 20260506203821 | 13 | 0 | 3.2 | 14.5 | 0.00 | 1.19 | 1.12 | 69 | 1008.4 |
| 20260506203321 | 13 | 337 | 4.8 | 11.3 | 0.00 | 1.19 | 1.12 | 70 | 1008.6 |
| 20260506203039 | 13 | 344 | 3.2 | 11.3 | 0.00 | 1.19 | 1.12 | 70 | 1008.6 |
| 20260506202321 | 13 | 285 | 3.2 | 11.3 | 0.00 | 1.19 | 1.12 | 68 | 1008.6 |
| 20260506201820 | 13 | 341 | 3.2 | 9.7 | 0.00 | 1.19 | 1.12 | 69 | 1008.4 |
| 20260506201538 | 13 | 323 | 3.2 | 9.7 | 0.00 | 1.19 | 1.12 | 71 | 1008.3 |
| 20260506200818 | 13 | 289 | 4.8 | 9.7 | 0.00 | 1.19 | 1.12 | 70 | 1008.4 |
| 20260506200544 | 13 | 348 | 3.2 | 9.7 | 0.00 | 1.19 | 1.12 | 70 | 1008.2 |
| 20260506195818 | 13 | 317 | 3.2 | 14.5 | 0.00 | 1.19 | 1.12 | 71 | 1008.4 |
| 20260506195540 | 13 | 348 | 3.2 | 14.5 | 0.00 | 1.19 | 1.12 | 72 | 1008.4 |
| 20260506194819 | 13 | 345 | 6.4 | 14.5 | 0.00 | 1.19 | 1.12 | 72 | 1008.4 |
| 20260506194320 | 13 | 347 | 6.4 | 9.7 | 0.00 | 1.19 | 1.12 | 72 | 1008.6 |
| 20260506193820 | 13 | 0 | 3.2 | 9.7 | 0.00 | 1.19 | 1.12 | 76 | 1008.3 |
| 20260506193319 | 13 | 271 | 3.2 | 9.7 | 0.00 | 1.19 | 1.12 | 75 | 1008.4 |
| 20260506192820 | 13 | 331 | 3.2 | 9.7 | 0.00 | 1.19 | 1.12 | 76 | 1008.3 |
| 20260506192319 | 13 | 347 | 4.8 | 9.7 | 0.00 | 1.19 | 1.12 | 77 | 1008.3 |
| 20260506191819 | 13 | 278 | 3.2 | 9.7 | 0.00 | 1.19 | 1.12 | 77 | 1008.3 |
| 20260506191319 | 12 | 321 | 3.2 | 9.7 | 0.00 | 1.19 | 1.12 | 81 | 1008.6 |
| 20260506191037 | 12 | 334 | 4.8 | 9.7 | 0.00 | 1.19 | 1.12 | 81 | 1008.7 |
| 20260506190319 | 12 | 0 | 3.2 | 6.4 | 0.00 | 1.19 | 1.12 | 81 | 1008.8 |
| 20260506185819 | 12 | 293 | 3.2 | 9.7 | 0.00 | 1.19 | 1.12 | 81 | 1008.8 |
| 20260506184819 | 12 | 340 | 6.4 | 11.3 | 0.00 | 1.19 | 1.12 | 79 | 1008.8 |
| 20260506184319 | 12 | 334 | 4.8 | 11.3 | 0.00 | 1.19 | 1.12 | 81 | 1008.8 |
| 20260506183818 | 12 | 314 | 3.2 | 11.3 | 0.00 | 1.19 | 1.12 | 81 | 1008.7 |
| 20260506183319 | 12 | 281 | 6.4 | 11.3 | 0.00 | 1.19 | 1.12 | 80 | 1008.6 |
| 20260506182819 | 12 | 300 | 4.8 | 9.7 | 0.00 | 1.19 | 1.12 | 80 | 1008.3 |
| 20260506182318 | 12 | 289 | 4.8 | 9.7 | 0.00 | 1.19 | 1.12 | 84 | 1008.3 |
| 20260506182044 | 12 | 305 | 0.0 | 4.8 | 0.00 | 1.19 | 1.12 | 84 | 1008.3 |
| 20260506181318 | 12 | 305 | 1.6 | 6.4 | 0.00 | 1.19 | 1.12 | 85 | 1008.6 |
| 20260506180818 | 12 | 302 | 1.6 | 6.4 | 0.00 | 1.19 | 1.12 | 85 | 1008.6 |
| 20260506180318 | 12 | 331 | 0.0 | 8.0 | 0.00 | 1.19 | 1.12 | 88 | 1008.6 |
| 20260506180038 | 11 | 331 | 1.6 | 8.0 | 0.00 | 1.19 | 1.12 | 86 | 1008.7 |
| 20260506174818 | 11 | 351 | 3.2 | 6.4 | 0.00 | 1.19 | 1.12 | 86 | 1008.9 |
| 20260506174318 | 11 | 0 | 1.6 | 11.3 | 0.00 | 1.19 | 1.12 | 86 | 1008.8 |
| 20260506173817 | 11 | 1 | 0.0 | 11.3 | 0.00 | 1.19 | 1.12 | 86 | 1008.6 |
| 20260506173317 | 11 | 0 | 4.8 | 8.0 | 0.00 | 1.19 | 1.12 | 87 | 1008.6 |
| 20260506173038 | 11 | 319 | 1.6 | 8.0 | 0.00 | 1.19 | 1.12 | 87 | 1008.3 |
| 20260506172319 | 11 | 348 | 3.2 | 8.0 | 0.00 | 1.19 | 1.12 | 87 | 1008.3 |
| 20260506171818 | 11 | 338 | 1.6 | 8.0 | 0.00 | 1.19 | 1.12 | 88 | 1008.4 |
| 20260506171317 | 11 | 351 | 4.8 | 9.7 | 0.00 | 1.19 | 1.12 | 89 | 1008.3 |
| 20260506171040 | 11 | 334 | 3.2 | 9.7 | 0.00 | 1.19 | 1.12 | 91 | 1008.3 |
| 20260506170317 | 11 | 341 | 3.2 | 8.0 | 0.00 | 1.19 | 1.12 | 92 | 1008.4 |
| 20260506165815 | 11 | 298 | 4.8 | 9.7 | 0.00 | 1.19 | 1.12 | 93 | 1008.4 |
| 20260506165541 | 10 | 330 | 0.0 | 14.5 | 0.00 | 1.19 | 1.12 | 93 | 1008.4 |
| 20260506165034 | 10 | 0 | 6.4 | 14.5 | 0.00 | 1.19 | 1.12 | 93 | 1008.6 |
| 20260506164316 | 10 | 0 | 4.8 | 11.3 | 0.00 | 1.19 | 1.12 | 94 | 1008.6 |
| 20260506163817 | 10 | 320 | 4.8 | 6.4 | 0.00 | 1.19 | 1.12 | 95 | 1008.6 |
| 20260506163317 | 10 | 344 | 3.2 | 4.8 | 0.00 | 1.19 | 1.12 | 95 | 1008.6 |
| 20260506162816 | 10 | 344 | 1.6 | 6.4 | 0.00 | 1.19 | 1.12 | 95 | 1008.4 |
| 20260506162547 | 10 | 340 | 1.6 | 6.4 | 0.00 | 1.19 | 1.12 | 96 | 1008.4 |
| 20260506161816 | 10 | 327 | 1.6 | 6.4 | 0.00 | 1.19 | 1.12 | 96 | 1008.6 |
| 20260506161316 | 10 | 337 | 3.2 | 4.8 | 0.00 | 1.19 | 1.12 | 96 | 1008.6 |
| 20260506160816 | 10 | 317 | 1.6 | 14.5 | 0.00 | 1.19 | 1.12 | 96 | 1008.4 |
| 20260506160316 | 9 | 324 | 4.8 | 14.5 | 0.00 | 1.19 | 1.12 | 95 | 1008.3 |
| 20260506155817 | 9 | 334 | 4.8 | 9.7 | 0.00 | 1.19 | 1.12 | 96 | 1008.2 |
| 20260506155316 | 9 | 292 | 6.4 | 11.3 | 0.00 | 1.19 | 1.12 | 96 | 1008.2 |
| 20260506154816 | 9 | 351 | 6.4 | 11.3 | 0.00 | 1.19 | 1.12 | 96 | 1008.1 |
| 20260506154316 | 9 | 347 | 6.4 | 11.3 | 0.00 | 1.19 | 1.12 | 96 | 1008.0 |
| 20260506153816 | 9 | 0 | 4.8 | 14.5 | 0.00 | 1.19 | 1.12 | 96 | 1007.8 |
| 20260506153315 | 9 | 1 | 6.4 | 14.5 | 0.00 | 1.19 | 1.12 | 95 | 1007.6 |
| 20260506153038 | 9 | 1 | 6.4 | 8.0 | 0.00 | 1.19 | 1.12 | 96 | 1007.6 |
| 20260506152317 | 9 | 0 | 3.2 | 11.3 | 0.00 | 1.19 | 1.12 | 96 | 1007.5 |
| 20260506152035 | 9 | 0 | 6.4 | 11.3 | 0.00 | 1.19 | 1.12 | 96 | 1007.5 |
| 20260506151315 | 9 | 357 | 4.8 | 9.7 | 0.00 | 1.19 | 1.12 | 96 | 1007.5 |
| 20260506150815 | 9 | 348 | 3.2 | 9.7 | 0.00 | 1.19 | 1.12 | 96 | 1007.3 |
| 20260506150316 | 9 | 338 | 4.8 | 9.7 | 0.00 | 1.19 | 1.12 | 96 | 1007.3 |
| 20260506145816 | 9 | 351 | 3.2 | 9.7 | 0.00 | 1.19 | 1.12 | 96 | 1007.2 |
| 20260506145315 | 9 | 0 | 4.8 | 9.7 | 0.00 | 1.19 | 1.12 | 96 | 1007.0 |
| 20260506144815 | 9 | 358 | 6.4 | 9.7 | 0.00 | 1.19 | 1.12 | 96 | 1007.0 |
| 20260506144315 | 9 | 0 | 3.2 | 9.7 | 0.00 | 1.19 | 1.12 | 95 | 1007.1 |
| 20260506143814 | 9 | 0 | 4.8 | 9.7 | 0.00 | 1.19 | 1.12 | 95 | 1007.0 |
| 20260506143315 | 9 | 0 | 1.6 | 8.0 | 0.03 | 1.19 | 1.12 | 96 | 1006.9 |
| 20260506142815 | 9 | 0 | 4.8 | 9.7 | 0.03 | 1.19 | 1.12 | 96 | 1006.6 |
| 20260506142314 | 9 | 0 | 3.2 | 9.7 | 0.03 | 1.19 | 1.12 | 96 | 1006.4 |
| 20260506141814 | 8 | 353 | 1.6 | 11.3 | 0.03 | 1.19 | 1.12 | 96 | 1006.4 |
| 20260506141316 | 8 | 329 | 4.8 | 11.3 | 0.03 | 1.19 | 1.12 | 96 | 1006.5 |
| 20260506140814 | 8 | 0 | 3.2 | 14.5 | 0.03 | 1.19 | 1.12 | 96 | 1006.4 |
| 20260506140314 | 8 | 0 | 6.4 | 14.5 | 0.03 | 1.19 | 1.12 | 96 | 1006.4 |
| 20260506135813 | 8 | 0 | 4.8 | 11.3 | 0.05 | 1.19 | 1.12 | 96 | 1006.5 |
| 20260506135315 | 8 | 0 | 3.2 | 9.7 | 0.05 | 1.19 | 1.12 | 95 | 1006.4 |
| 20260506134814 | 8 | 24 | 6.4 | 11.3 | 0.05 | 1.19 | 1.12 | 95 | 1006.5 |
| 20260506134313 | 8 | 0 | 4.8 | 11.3 | 0.05 | 1.19 | 1.12 | 95 | 1006.3 |
| 20260506134032 | 8 | 334 | 4.8 | 16.1 | 0.05 | 1.19 | 1.12 | 95 | 1006.2 |
| 20260506133313 | 8 | 0 | 6.4 | 17.7 | 0.03 | 1.17 | 1.09 | 95 | 1006.2 |
| 20260506132813 | 8 | 353 | 6.4 | 17.7 | 0.03 | 1.17 | 1.09 | 95 | 1006.1 |
| 20260506132536 | 8 | 347 | 8.0 | 17.7 | 0.03 | 1.17 | 1.09 | 95 | 1006.1 |
| 20260506131813 | 9 | 353 | 6.4 | 19.3 | 0.03 | 1.17 | 1.09 | 95 | 1006.2 |
| 20260506131313 | 9 | 17 | 9.7 | 19.3 | 0.03 | 1.17 | 1.09 | 95 | 1006.1 |
| 20260506131034 | 9 | 4 | 11.3 | 17.7 | 0.03 | 1.17 | 1.09 | 95 | 1005.2 |
| 20260506130313 | 9 | 0 | 6.4 | 20.9 | 0.03 | 1.17 | 1.09 | 95 | 1005.1 |
| 20260506125811 | 9 | 338 | 11.3 | 20.9 | 0.00 | 1.14 | 1.07 | 95 | 1005.3 |
| 20260506125311 | 9 | 348 | 6.4 | 14.5 | 0.00 | 1.14 | 1.07 | 95 | 1005.3 |
| 20260506124813 | 10 | 336 | 6.4 | 14.5 | 0.00 | 1.14 | 1.07 | 95 | 1005.2 |
| 20260506124533 | 10 | 343 | 6.4 | 11.3 | 0.03 | 1.14 | 1.07 | 95 | 1005.0 |
| 20260506123812 | 10 | 334 | 4.8 | 9.7 | 0.03 | 1.14 | 1.07 | 95 | 1004.9 |
| 20260506123313 | 10 | 0 | 4.8 | 14.5 | 0.05 | 1.14 | 1.07 | 94 | 1004.8 |
| 20260506122813 | 10 | 0 | 6.4 | 14.5 | 0.05 | 1.14 | 1.07 | 95 | 1004.8 |
| 20260506122312 | 10 | 345 | 3.2 | 4.8 | 0.08 | 1.14 | 1.07 | 94 | 1004.6 |
| 20260506121812 | 10 | 345 | 3.2 | 4.8 | 0.08 | 1.14 | 1.07 | 94 | 1004.5 |
| 20260506121312 | 11 | 347 | 1.6 | 6.4 | 0.08 | 1.14 | 1.07 | 94 | 1004.6 |
| 20260506120811 | 11 | 350 | 4.8 | 11.3 | 0.08 | 1.14 | 1.07 | 94 | 1004.5 |
| 20260506120311 | 11 | 343 | 6.4 | 11.3 | 0.08 | 1.14 | 1.07 | 94 | 1004.6 |
| 20260506115811 | 11 | 331 | 6.4 | 9.7 | 0.08 | 1.14 | 1.07 | 94 | 1004.5 |
| 20260506115310 | 12 | 338 | 1.6 | 11.3 | 0.08 | 1.14 | 1.07 | 94 | 1004.5 |
| 20260506115034 | 12 | 333 | 6.4 | 11.3 | 0.08 | 1.14 | 1.07 | 93 | 1004.6 |
| 20260506114310 | 13 | 252 | 1.6 | 11.3 | 0.05 | 1.12 | 1.04 | 95 | 1004.4 |
| 20260506113810 | 13 | 251 | 8.0 | 16.1 | 0.05 | 1.12 | 1.04 | 95 | 1004.3 |
| 20260506113310 | 13 | 235 | 9.7 | 17.7 | 0.03 | 1.09 | 1.02 | 95 | 1004.0 |
| 20260506112810 | 13 | 234 | 8.0 | 22.5 | 0.03 | 1.09 | 1.02 | 95 | 1004.2 |
| 20260506112531 | 13 | 200 | 9.7 | 22.5 | 0.00 | 1.07 | 0.99 | 95 | 1004.1 |
| 20260506111810 | 13 | 231 | 11.3 | 25.7 | 0.00 | 1.07 | 0.99 | 95 | 1004.0 |
| 20260506111310 | 13 | 219 | 12.9 | 25.7 | 0.00 | 1.07 | 0.99 | 95 | 1003.9 |
| 20260506111028 | 13 | 228 | 14.5 | 25.7 | 0.03 | 1.07 | 0.99 | 95 | 1003.8 |
| 20260506110310 | 13 | 235 | 16.1 | 25.7 | 0.03 | 1.07 | 0.99 | 95 | 1003.7 |
| 20260506105810 | 13 | 214 | 14.5 | 29.0 | 0.03 | 1.07 | 0.99 | 95 | 1003.7 |
| 20260506105309 | 13 | 228 | 12.9 | 29.0 | 0.03 | 1.07 | 0.99 | 95 | 1003.4 |
| 20260506104810 | 13 | 204 | 12.9 | 22.5 | 0.05 | 1.07 | 0.99 | 95 | 1003.3 |
| 20260506104310 | 13 | 248 | 12.9 | 25.7 | 0.08 | 1.07 | 0.99 | 95 | 1003.5 |
| 20260506103809 | 13 | 241 | 17.7 | 25.7 | 0.08 | 1.07 | 0.99 | 95 | 1003.3 |
| 20260506103531 | 13 | 235 | 14.5 | 24.1 | 0.08 | 1.07 | 0.99 | 95 | 1003.4 |
| 20260506102809 | 13 | 234 | 14.5 | 20.9 | 0.10 | 1.07 | 0.99 | 95 | 1003.2 |
| 20260506102309 | 13 | 231 | 14.5 | 24.1 | 0.10 | 1.07 | 0.99 | 95 | 1003.2 |
| 20260506101809 | 13 | 241 | 9.7 | 25.7 | 0.10 | 1.07 | 0.99 | 95 | 1003.2 |
| 20260506101309 | 13 | 200 | 17.7 | 25.7 | 0.13 | 1.07 | 0.99 | 95 | 1003.4 |
| 20260506100809 | 13 | 214 | 16.1 | 25.7 | 0.10 | 1.04 | 0.97 | 95 | 1003.6 |
| 20260506100528 | 13 | 209 | 14.5 | 25.7 | 0.10 | 1.04 | 0.97 | 95 | 1003.5 |
| 20260506095808 | 13 | 214 | 9.7 | 22.5 | 0.13 | 1.04 | 0.97 | 95 | 1003.6 |
| 20260506095310 | 13 | 240 | 9.7 | 22.5 | 0.13 | 1.04 | 0.97 | 95 | 1003.7 |
| 20260506094809 | 13 | 206 | 11.3 | 20.9 | 0.13 | 1.02 | 0.94 | 95 | 1003.7 |
| 20260506094310 | 13 | 230 | 14.5 | 24.1 | 0.10 | 0.99 | 0.91 | 95 | 1003.8 |
| 20260506093808 | 13 | 209 | 14.5 | 24.1 | 0.13 | 0.99 | 0.91 | 95 | 1003.8 |
| 20260506093309 | 13 | 214 | 12.9 | 22.5 | 0.13 | 0.99 | 0.91 | 95 | 1003.8 |
| 20260506092810 | 13 | 217 | 12.9 | 25.7 | 0.13 | 0.97 | 0.89 | 95 | 1003.7 |
| 20260506092308 | 13 | 204 | 12.9 | 25.7 | 0.13 | 0.97 | 0.89 | 95 | 1003.8 |
| 20260506091809 | 13 | 241 | 16.1 | 24.1 | 0.13 | 0.97 | 0.89 | 95 | 1003.6 |
| 20260506091309 | 13 | 210 | 12.9 | 22.5 | 0.13 | 0.94 | 0.86 | 94 | 1003.7 |
| 20260506090808 | 13 | 217 | 16.1 | 24.1 | 0.13 | 0.94 | 0.86 | 94 | 1003.6 |
| 20260506090308 | 13 | 221 | 16.1 | 24.1 | 0.18 | 0.94 | 0.86 | 94 | 1003.6 |
| 20260506085808 | 13 | 252 | 11.3 | 24.1 | 0.18 | 0.91 | 0.84 | 94 | 1003.6 |
| 20260506085307 | 13 | 230 | 14.5 | 24.1 | 0.20 | 0.91 | 0.84 | 94 | 1003.6 |
| 20260506085030 | 13 | 226 | 12.9 | 27.4 | 0.20 | 0.89 | 0.81 | 94 | 1003.7 |
| 20260506084307 | 13 | 209 | 12.9 | 27.4 | 0.23 | 0.89 | 0.81 | 94 | 1003.7 |
| 20260506083808 | 13 | 227 | 16.1 | 24.1 | 0.20 | 0.86 | 0.79 | 94 | 1003.8 |
| 20260506083307 | 13 | 243 | 12.9 | 20.9 | 0.23 | 0.86 | 0.79 | 94 | 1003.8 |
| 20260506082807 | 13 | 223 | 14.5 | 20.9 | 0.23 | 0.84 | 0.76 | 94 | 1003.8 |
| 20260506082529 | 13 | 216 | 14.5 | 20.9 | 0.23 | 0.84 | 0.76 | 94 | 1003.8 |
| 20260506081808 | 13 | 214 | 12.9 | 20.9 | 0.25 | 0.84 | 0.76 | 94 | 1003.9 |
| 20260506081307 | 13 | 233 | 12.9 | 20.9 | 0.25 | 0.81 | 0.74 | 93 | 1004.0 |
| 20260506080807 | 13 | 209 | 12.9 | 24.1 | 0.25 | 0.81 | 0.74 | 93 | 1003.9 |
| 20260506080307 | 13 | 227 | 17.7 | 24.1 | 0.20 | 0.76 | 0.69 | 93 | 1004.0 |
| 20260506073307 | 13 | 203 | 9.7 | 16.1 | 0.18 | 0.64 | 0.56 | 93 | 1004.1 |
| 20260506073034 | 13 | 213 | 6.4 | 9.7 | 0.15 | 0.61 | 0.53 | 93 | 1004.2 |
| 20260506072307 | 13 | 209 | 3.2 | 9.7 | 0.15 | 0.61 | 0.53 | 93 | 1004.1 |
| 20260506071806 | 13 | 206 | 6.4 | 9.7 | 0.13 | 0.58 | 0.51 | 93 | 1004.0 |
| 20260506071306 | 13 | 212 | 6.4 | 9.7 | 0.10 | 0.56 | 0.48 | 93 | 1004.3 |
| 20260506070806 | 13 | 223 | 6.4 | 16.1 | 0.10 | 0.56 | 0.48 | 93 | 1004.2 |
| 20260506070306 | 13 | 220 | 8.0 | 16.1 | 0.13 | 0.56 | 0.48 | 93 | 1004.0 |
| 20260506062306 | 13 | 213 | 0.0 | 4.8 | 0.25 | 0.46 | 0.38 | 92 | 1004.0 |
| 20260506062028 | 13 | 213 | 3.2 | 6.4 | 0.28 | 0.46 | 0.38 | 92 | 1004.2 |
| 20260506061303 | 13 | 213 | 1.6 | 6.4 | 0.30 | 0.46 | 0.38 | 92 | 1004.3 |
| 20260506060803 | 13 | 213 | 4.8 | 6.4 | 0.33 | 0.46 | 0.38 | 92 | 1004.4 |
| 20260506060304 | 13 | 214 | 3.2 | 9.7 | 0.30 | 0.43 | 0.36 | 91 | 1004.6 |
| 20260506051304 | 14 | 219 | 9.7 | 24.1 | 0.08 | 0.15 | 0.08 | 88 | 1005.6 |
| 20260506051032 | 13 | 223 | 16.1 | 24.1 | 0.05 | 0.13 | 0.05 | 89 | 1005.7 |
| 20260506050304 | 13 | 241 | 9.7 | 14.5 | 0.05 | 0.13 | 0.05 | 90 | 1006.0 |
| 20260506044803 | 13 | 226 | 0.0 | 1.6 | 0.05 | 0.10 | 0.03 | 90 | 1006.1 |
| 20260506044303 | 13 | 226 | 0.0 | 0.0 | 0.05 | 0.10 | 0.03 | 89 | 1006.0 |
| 20260506044023 | 13 | 226 | 0.0 | 0.0 | 0.08 | 0.10 | 0.03 | 88 | 1005.9 |
| 20260506043304 | 14 | 226 | 0.0 | 1.6 | 0.05 | 0.08 | 0.00 | 88 | 1005.7 |
| 20260506043027 | 14 | 226 | 0.0 | 3.2 | 0.05 | 0.08 | 0.00 | 87 | 1005.7 |
| 20260506042305 | 14 | 226 | 1.6 | 3.2 | 0.05 | 0.08 | 0.00 | 86 | 1005.7 |
| 20260506041803 | 14 | 226 | 0.0 | 4.8 | 0.08 | 0.08 | 0.00 | 85 | 1005.5 |
| 20260506041303 | 14 | 226 | 1.6 | 4.8 | 0.08 | 0.08 | 0.00 | 85 | 1005.5 |
| 20260506041030 | 14 | 226 | 3.2 | 8.0 | 0.08 | 0.08 | 0.00 | 84 | 1005.7 |
| 20260506040303 | 14 | 226 | 3.2 | 8.0 | 0.08 | 0.08 | 0.00 | 84 | 1005.6 |
| 20260506035306 | 15 | 228 | 3.2 | 9.7 | 0.05 | 0.05 | 0.05 | 82 | 1005.9 |
| 20260506034803 | 15 | 228 | 4.8 | 8.0 | 0.05 | 0.05 | 0.05 | 81 | 1006.0 |
| 20260506034302 | 15 | 231 | 6.4 | 11.3 | 0.05 | 0.05 | 0.05 | 80 | 1006.1 |
| 20260506033303 | 15 | 231 | 6.4 | 20.9 | 0.03 | 0.03 | 0.03 | 76 | 1006.1 |
| 20260506032803 | 16 | 234 | 9.7 | 20.9 | 0.03 | 0.03 | 0.03 | 73 | 1006.1 |
| 20260506032305 | 16 | 209 | 12.9 | 24.1 | 0.03 | 0.03 | 0.03 | 71 | 1006.1 |
| 20260506031802 | 17 | 231 | 14.5 | 24.1 | 0.00 | 0.00 | 0.00 | 68 | 1006.2 |
| 20260506031524 | 17 | 228 | 16.1 | 27.4 | 0.00 | 0.00 | 0.00 | 66 | 1006.2 |
| 20260506030802 | 17 | 247 | 12.9 | 29.0 | 0.00 | 0.00 | 0.00 | 65 | 1006.2 |
| 20260506030301 | 17 | 220 | 16.1 | 30.6 | 0.00 | 0.00 | 0.00 | 64 | 1006.3 |
| 20260506025801 | 18 | 230 | 17.7 | 30.6 | 0.00 | 0.00 | 0.00 | 61 | 1006.1 |
| 20260506025305 | 18 | 227 | 14.5 | 30.6 | 0.00 | 0.00 | 0.00 | 60 | 1006.1 |
| 20260506024802 | 18 | 227 | 16.1 | 29.0 | 0.00 | 0.00 | 0.00 | 60 | 1006.2 |
| 20260506024301 | 18 | 238 | 8.0 | 17.7 | 0.00 | 0.00 | 0.00 | 61 | 1006.1 |
| 20260506023802 | 18 | 248 | 9.7 | 16.1 | 0.00 | 0.00 | 0.00 | 60 | 1006.1 |